Hourly Data Report for February 01, 2022

LONDON CS
ONTARIO
Current Station Operator: ECCC - MSC

43°02'00.000" N
81°09'00.000" W
278.00 m
6144478
71622
WSN

Download Data

Hourly Data (February 2022)
Hourly Data Report for February 1, 2022
TIME
LST
Temp Definition
°C
Dew Point Definition
°C
Rel Hum Definition
%
Precip. Amount Definition
mm

Wind Dir Definition
10's deg

Wind Spd Definition
km/h
Visibility Definition
km
Stn Press Definition
kPa
Hmdx Definition


Wind Chill Definition


Weather Definition


00:00 -9.2 -12.6 76 0.0       99.07     LegendNANA
01:00 -8.3 -12.5 72 0.0       99.08     LegendNANA
02:00 -8.2 -12.2 73 0.0       99.08     LegendNANA
03:00 -8.5 -11.8 76 0.0       99.07     LegendNANA
04:00 -8.2 -11.5 77 0.0       99.00     LegendNANA
05:00 -7.2 -10.8 75 0.0       99.03     LegendNANA
06:00 -6.4 -10.2 75 0.0       98.97     LegendNANA
07:00 -6.7 -10.1 77 0.0       98.97     LegendNANA
08:00 -6.4 -9.8 77 0.0       98.96     LegendNANA
09:00 -5.6 -9.2 76 0.0       98.88     LegendNANA
10:00 -3.3 -8.0 70 0.0       98.81     LegendNANA
11:00 -2.2 -7.1 69 0.0       98.73     LegendNANA
12:00 -0.3 -6.4 64 0.0       98.63     LegendNANA
13:00 0.8 -5.8 61 0.0       98.59     LegendNANA
14:00 1.3 -5.4 61 0.0       98.52     LegendNANA
15:00 2.3 -5.0 59 0.0       98.47     LegendNANA
16:00 3.3 -4.7 56 0.0       98.42     LegendNANA
17:00 3.4 -4.4 57 0.0       98.39     LegendNANA
18:00 3.8 -4.0 57 0.0       98.42     LegendNANA
19:00 4.5 -3.6 56 0.0       98.45     LegendNANA
20:00 4.4 -3.4 57 0.0       98.44     LegendNANA
21:00 4.5 -3.3 57 0.0       98.48     LegendNANA
22:00 4.1 -3.1 59 0.0       98.48     LegendNANA
23:00 3.8 -2.7 63 0.0       98.48     LegendNANA

Notes on Data Quality.

Legend

  • E = Estimated
  • M = Missing
  • NA = Not Available*
  • [empty] = Indicates an unobserved value
Date modified: